Вернуться в каталог

STARLINK-31152

АктивенСвязьVLEO
NORAD 58734·PAYLOAD·🇺🇸 United States

Запущен Jan 7, 2024 с Cape Canaveral Space Force Station

Loading…

Ближайшие Пролёты (ближайшие 24 часа)

TLE

СвежийSource: CelesTrak SupGP

Эпоха: Sep 14, 2026, 21:05 UTC

1 58734C 24005G   26257.87895833  .00037907  00000+0  13733-2 0  2572
2 58734  42.9998 231.0133 0001256 255.8585  15.2849 15.27553228    15

Отслеживайте STARLINK-31152 в реальном времени с AllMySat

Download on the App Store